Date,TemperatureHighF,TemperatureAvgF,TemperatureLowF,DewpointHighF,DewpointAvgF,DewpointLowF,HumidityHigh,HumidityAvg,HumidityLow,PressureMaxIn,PressureMinIn,WindSpeedMaxMPH,WindSpeedAvgMPH,GustSpeedMaxMPH,PrecipitationSumIn
2013-1-1,49.9,47.9,44.4,49.4,42.4,32.2,98,83,54,30.15,29.97,2,0,7,0.35
2013-1-2,49.6,47.5,43.4,49.1,43.2,36.0,98,85,73,30.18,29.93,5,0,12,0.09
2013-1-3,43.4,41.3,40.6,37.0,35.5,34.9,83,80,77,30.21,30.15,0,0,1,0.00
2013-1-4,51.0,41.2,28.6,34.9,29.0,23.1,93,64,40,30.38,30.21,8,1,14,0.00
2013-1-5,48.5,39.2,29.7,33.7,28.5,24.5,89,67,43,30.43,30.25,2,0,6,0.00
2013-1-6,54.4,46.1,41.9,42.9,37.8,33.8,88,73,59,30.27,30.06,9,1,18,0.02
2013-1-7,50.5,40.1,31.2,36.0,32.4,29.7,95,76,49,30.46,30.23,7,0,9,0.00
2013-1-8,51.3,41.3,32.1,43.3,37.0,30.8,97,86,68,30.50,30.40,2,0,4,0.00
2013-1-9,64.2,51.4,40.1,55.3,47.6,38.2,98,87,71,30.47,30.39,3,0,7,0.00
2013-1-10,65.5,55.4,48.5,53.1,47.2,40.5,98,76,52,30.52,30.39,3,0,8,0.00
2013-1-11,53.6,47.8,46.0,48.6,46.5,42.8,99,95,67,30.39,30.19,3,0,7,0.17
2013-1-12,65.6,55.6,47.6,62.9,54.5,47.1,100,96,88,30.19,30.10,2,0,5,0.00
2013-1-13,71.0,61.5,55.8,63.8,59.4,55.2,99,93,77,30.14,30.05,3,0,12,0.01
2013-1-14,64.4,62.4,60.7,64.1,61.6,59.8,99,97,94,30.13,30.06,0,0,4,0.33
2013-1-15,61.6,47.7,42.3,61.3,47.1,41.8,99,98,97,30.21,30.09,12,1,21,0.23
2013-1-16,50.5,45.8,42.0,49.9,45.3,41.5,99,98,97,30.10,29.99,6,0,9,0.19
2013-1-17,51.1,45.9,34.8,50.8,45.3,34.0,99,98,96,30.21,29.85,14,2,30,2.61
2013-1-18,46.0,38.4,32.0,36.4,30.3,25.4,98,75,46,30.55,30.20,7,1,14,0.00
2013-1-19,31.8,29.4,28.6,29.3,27.9,27.4,95,94,89,30.53,30.50,0,0,0,0.00
2013-1-20,29.0,29.0,29.0,27.7,27.7,27.7,95,95,95,30.50,30.50,0,0,0,0.00
2013-1-21,29.0,29.0,29.0,27.7,27.7,27.7,95,95,95,30.50,30.50,0,0,0,0.00
2013-1-22,29.0,29.0,29.0,27.7,27.7,27.7,95,95,95,30.50,30.50,0,0,0,0.00
2013-1-23,29.0,29.0,29.0,27.7,27.7,27.7,95,95,95,30.50,30.50,0,0,0,0.00
2013-1-24,29.6,28.9,26.8,27.7,25.4,9.1,95,89,44,30.54,30.48,1,0,5,0.00
2013-1-25,28.1,26.4,23.0,26.3,18.5,9.3,93,73,48,30.55,30.17,2,0,7,0.01
2013-1-26,44.3,34.1,28.1,36.0,31.0,26.3,97,89,68,30.41,30.15,2,0,5,0.02
2013-1-27,42.0,35.4,27.9,32.3,28.7,24.8,94,77,61,30.62,30.41,3,0,8,0.00
2013-1-28,50.3,43.2,37.2,46.1,38.2,32.1,93,83,74,30.51,30.27,1,0,12,0.02
2013-1-29,71.0,55.6,42.3,59.9,51.4,41.2,99,87,66,30.28,30.05,2,0,12,0.00
2013-1-30,71.5,64.8,52.7,63.3,61.0,50.5,97,88,71,30.05,29.41,7,1,32,1.06
2013-1-31,52.5,42.9,35.2,50.0,30.3,22.1,91,62,40,30.04,29.50,8,2,27,0.02
2013-2-1,41.5,36.1,28.0,30.9,18.0,8.5,66,48,30,30.41,29.93,12,3,26,0.00
2013-2-2,44.4,35.0,25.0,36.2,19.7,12.7,82,55,35,30.43,30.08,7,0,20,0.00
2013-2-3,50.0,42.2,35.2,36.3,30.7,26.5,89,65,41,30.07,29.89,10,2,23,0.00
2013-2-4,50.3,40.8,31.1,30.7,27.3,23.2,79,59,43,30.17,30.02,2,0,6,0.00
2013-2-5,61.0,46.8,39.2,43.6,35.6,30.6,85,66,44,30.02,29.91,5,0,12,0.00
2013-2-6,61.0,47.0,36.1,39.9,32.6,22.6,97,64,25,30.25,30.00,6,1,8,0.00
2013-2-7,43.2,40.7,38.9,39.5,35.4,29.4,96,82,61,30.32,30.05,6,1,15,0.73
2013-2-8,58.1,46.4,38.8,47.8,38.8,30.0,97,77,47,30.13,29.89,9,3,17,0.03
2013-2-9,55.7,42.3,32.3,33.0,27.3,19.8,85,59,28,30.37,30.13,5,1,9,0.00
2013-2-10,56.0,43.7,33.9,43.8,32.1,25.5,96,68,32,30.48,30.20,1,0,6,0.12
2013-2-11,56.8,50.0,43.5,56.4,49.1,42.5,99,97,95,30.20,29.98,5,0,10,0.12
2013-2-12,57.6,50.9,43.7,51.1,39.8,28.4,96,68,36,30.13,29.91,5,0,7,0.00
2013-2-13,49.6,45.5,43.1,46.3,42.9,35.9,97,91,71,29.96,29.67,6,0,12,0.09
2013-2-14,52.3,41.0,31.8,37.0,34.4,30.0,97,79,53,30.09,29.88,2,0,8,0.00
2013-2-15,61.1,46.5,32.7,41.4,36.6,31.9,98,72,37,30.13,29.95,7,1,15,0.01
2013-2-16,46.9,37.4,30.6,39.0,31.0,22.7,95,78,65,30.03,29.85,12,1,18,0.00
2013-2-17,41.0,32.8,26.0,23.5,15.6,11.3,76,51,31,30.29,30.03,8,1,21,0.05
2013-2-18,54.1,39.3,26.3,34.6,25.3,15.7,79,59,40,30.42,30.23,2,0,9,0.00
2013-2-19,49.2,42.4,36.7,44.7,36.0,21.9,97,80,41,30.24,29.91,5,0,13,0.21
2013-2-20,54.2,43.3,30.9,30.1,19.3,13.8,70,39,23,30.15,30.04,6,1,20,0.00
2013-2-21,56.6,41.7,28.1,39.3,24.0,17.5,92,52,26,30.32,30.12,5,0,5,0.05
2013-2-22,41.9,38.1,36.8,40.3,36.9,35.6,97,95,90,30.35,30.15,7,1,7,0.41
2013-2-23,37.4,36.7,36.5,36.6,35.9,35.7,98,97,97,30.18,30.02,12,1,12,0.15
2013-2-24,62.9,45.8,36.6,43.3,38.3,29.7,98,79,29,30.05,29.88,12,0,12,0.00
2013-2-25,41.6,40.1,38.1,34.3,29.2,27.4,81,65,58,30.22,30.04,8,1,8,0.00
2013-2-26,40.5,39.6,39.4,39.7,33.1,29.0,97,79,66,30.15,29.65,12,1,12,1.33
2013-2-27,54.5,43.2,39.5,42.3,40.3,37.6,98,90,59,29.77,29.68,10,1,10,0.00
2013-2-28,47.3,42.6,36.2,38.1,30.7,26.4,83,64,46,29.93,29.74,17,3,17,0.00
2013-3-1,46.1,40.4,33.6,33.8,30.9,29.0,85,69,55,29.96,29.90,12,2,12,0.00
2013-3-2,45.2,39.9,35.1,37.8,33.7,28.9,92,78,68,29.94,29.87,14,1,14,0.03
2013-3-3,42.2,34.9,32.2,35.5,24.2,20.9,77,65,46,30.05,29.87,15,4,15,0.00
2013-3-4,55.0,39.5,30.2,33.3,22.6,17.6,68,52,27,30.18,30.04,12,2,12,0.00
2013-3-5,48.4,44.7,39.2,45.5,38.4,27.1,96,80,51,30.10,29.64,4,0,4,0.53
2013-3-6,44.9,40.3,35.5,42.0,29.5,24.5,96,66,50,30.15,29.64,16,6,16,0.01
2013-3-7,53.0,40.1,36.1,34.2,30.0,27.0,76,68,44,30.31,30.15,13,3,13,0.00
2013-3-8,55.6,43.6,35.7,31.8,28.2,25.8,70,57,32,30.34,30.23,14,2,14,0.00
2013-3-9,48.9,48.9,48.9,31.5,31.5,31.5,51,51,51,30.29,30.29,0,0,0,0.00
2013-3-10,66.5,52.4,41.0,43.3,39.7,31.5,99,65,35,30.32,30.18,12,1,12,0.00
2013-3-11,66.8,55.1,42.9,55.5,45.1,32.9,94,69,58,30.22,29.87,6,0,6,0.09
2013-3-12,62.9,57.6,47.6,57.3,50.8,34.6,99,81,40,30.00,29.75,9,2,9,0.47
2013-3-13,47.6,45.0,38.3,38.1,31.3,27.7,84,59,50,30.09,30.00,4,0,4,0.00
2013-3-14,47.6,47.6,47.6,29.9,29.9,29.9,50,50,50,30.09,30.09,0,0,0,0.00
2013-3-15,47.6,47.6,47.6,29.9,29.9,29.9,50,50,50,30.09,30.09,0,0,0,0.00
2013-3-16,47.6,47.6,47.6,29.9,29.9,29.9,50,50,50,30.09,30.09,0,0,0,0.00
2013-3-17,47.6,47.6,47.6,29.9,29.9,29.9,50,50,50,30.09,30.09,0,0,0,0.00
2013-3-18,47.6,46.2,42.0,41.4,32.7,29.9,97,62,50,30.09,29.97,4,0,4,0.10
2013-3-19,63.3,48.9,42.0,40.9,34.3,18.7,96,67,20,30.08,29.94,21,3,21,0.00
2013-3-20,57.0,49.2,43.8,32.8,20.8,14.6,59,33,23,30.14,29.80,15,4,15,0.00
2013-3-21,48.0,38.6,33.0,32.2,17.7,10.9,59,43,31,30.02,29.81,18,8,18,0.00
2013-3-22,32.6,26.4,25.1,20.1,16.7,14.2,70,67,50,30.10,30.01,12,0,12,0.00
2013-3-23,55.7,45.9,25.1,41.8,35.5,16.7,86,68,50,30.10,29.92,7,1,7,0.00
2013-3-24,46.1,41.7,38.5,43.2,39.9,37.2,96,93,85,29.97,29.57,13,3,13,0.73
2013-3-25,41.6,40.2,37.5,37.9,32.9,29.5,97,77,63,29.67,29.58,24,3,24,0.05
2013-3-26,41.6,36.5,35.9,30.3,27.0,26.7,70,68,64,29.94,29.66,4,0,4,0.00
2013-3-27,49.7,41.3,35.9,28.9,26.4,23.4,69,57,36,30.29,29.93,17,4,17,0.00
2013-3-28,54.9,42.5,29.5,33.1,27.0,23.4,85,57,31,30.34,30.22,13,3,13,0.00
2013-3-29,61.3,46.9,33.0,39.2,32.1,27.3,99,61,30,30.38,30.21,13,2,13,0.00
2013-3-30,64.3,53.7,45.6,46.2,41.9,36.1,93,66,45,30.25,30.07,6,1,6,0.00
2013-3-31,66.1,55.9,50.3,61.3,52.8,45.9,99,90,70,30.07,29.80,12,1,12,0.40
2013-4-1,69.3,59.5,50.3,53.7,47.1,39.2,98,69,35,29.93,29.84,23,4,23,0.03
2013-4-2,62.6,52.5,41.5,42.3,33.8,26.2,86,51,28,30.17,29.93,15,2,15,0.00
2013-4-3,58.4,50.9,42.3,35.9,26.9,20.9,58,40,27,30.31,30.15,14,1,14,0.00
2013-4-4,48.9,42.2,37.0,38.7,32.7,21.2,96,73,36,30.32,30.01,21,4,21,0.90
2013-4-5,65.2,50.0,37.9,48.0,42.3,36.4,97,78,36,30.07,29.93,15,4,15,0.00
2013-4-6,68.0,54.3,41.1,43.7,40.0,36.3,97,63,33,30.26,30.07,9,1,9,0.00
2013-4-7,71.0,56.6,43.5,51.7,45.4,37.5,89,68,42,30.27,30.11,12,1,12,0.00
2013-4-8,77.9,64.3,52.2,59.1,54.5,49.3,96,73,47,30.17,30.05,12,1,12,0.00
2013-4-9,83.4,68.8,55.5,61.9,57.5,52.7,93,69,45,30.20,30.07,6,1,7,0.00
2013-4-10,69.9,66.9,61.5,62.0,60.3,57.6,87,79,74,30.10,30.06,1,0,1,0.00
2013-4-11,69.9,69.9,69.9,62.0,62.0,62.0,76,76,76,30.10,30.10,0,0,0,0.00
2013-4-12,70.2,69.3,61.9,62.0,59.4,41.3,76,72,35,30.10,29.71,11,1,11,0.00
2013-4-13,76.2,62.0,46.8,49.2,43.9,37.1,93,56,25,30.02,29.81,10,1,10,0.00
2013-4-14,76.7,63.4,49.6,57.1,48.5,42.2,94,61,35,30.10,29.99,10,1,10,0.00
2013-4-15,63.8,59.9,56.7,60.9,58.1,54.1,98,94,74,30.21,29.98,9,2,9,0.13
2013-4-16,78.0,65.5,58.4,63.1,60.0,55.8,97,84,56,30.30,30.18,7,0,7,0.00
2013-4-17,77.9,68.9,59.2,65.0,61.2,58.4,98,79,54,30.24,30.12,12,2,12,0.00
2013-4-18,79.5,69.9,64.7,64.2,62.8,60.6,94,79,56,30.16,29.99,4,0,0,0.00
2013-4-19,76.8,67.1,57.1,68.8,63.5,54.2,96,88,72,30.00,29.73,18,2,18,0.22
2013-4-20,64.5,54.1,47.3,54.2,38.7,32.6,92,58,32,30.29,29.90,12,4,12,0.03
2013-4-21,61.8,52.3,43.5,46.4,41.3,34.9,94,67,48,30.48,30.28,12,3,12,0.00
2013-4-22,62.5,51.6,42.4,43.7,38.2,32.8,84,62,34,30.47,30.25,20,2,20,0.00
2013-4-23,69.5,57.4,49.7,54.9,48.4,38.2,89,73,56,30.30,30.12,13,2,13,0.00
2013-4-24,73.4,62.4,52.6,60.2,56.0,51.5,96,81,59,30.14,29.99,10,1,10,0.00
2013-4-25,69.6,59.2,50.4,59.5,45.3,34.6,90,63,29,30.29,30.04,17,4,17,0.00
2013-4-26,69.6,58.3,46.5,50.3,42.0,35.6,84,58,32,30.46,30.30,0,0,0,0.00
2013-4-27,60.7,57.4,56.3,57.3,53.2,48.1,96,86,67,30.37,30.26,0,0,0,0.02
2013-4-28,57.2,56.3,55.7,56.1,55.4,54.7,98,97,95,30.26,30.06,10,1,10,0.60
2013-4-29,72.1,61.3,56.0,64.3,59.0,55.4,99,93,70,30.07,29.95,5,0,5,0.23
2013-4-30,68.1,61.8,58.1,62.2,59.1,56.1,99,91,76,30.19,30.00,12,1,12,0.01
2013-5-1,64.5,59.9,55.4,59.3,57.4,54.4,97,92,80,30.31,30.18,12,2,12,0.01
2013-5-2,62.0,58.9,55.8,58.1,56.7,54.7,97,92,86,30.33,30.25,10,3,10,0.00
2013-5-3,66.0,60.5,54.4,56.8,54.0,47.2,95,80,64,30.25,30.14,12,4,12,0.01
2013-5-4,61.8,54.9,50.5,53.2,49.0,45.4,90,81,67,30.16,30.02,13,6,13,0.01
2013-5-5,58.8,54.2,50.4,57.9,51.8,48.2,98,92,84,30.08,29.89,14,6,14,0.00
2013-5-6,70.1,61.3,53.2,61.8,56.4,49.9,99,85,50,29.91,29.82,9,2,9,0.06
2013-5-7,70.4,57.1,49.9,55.0,52.0,47.2,98,85,47,29.97,29.86,14,1,14,0.08
2013-5-8,72.7,61.5,51.6,62.7,56.9,51.3,99,86,61,30.02,29.93,6,0,6,0.01
2013-5-9,80.4,66.4,54.0,64.6,58.1,53.4,99,78,47,30.09,30.01,7,1,7,0.00
2013-5-10,81.8,69.5,57.8,66.4,61.9,57.2,99,79,52,30.07,29.94,8,1,8,0.00
2013-5-11,78.4,69.8,62.6,66.3,63.1,60.2,98,80,60,29.96,29.78,15,1,15,0.00
2013-5-12,70.8,63.2,54.8,62.6,49.9,39.7,99,65,38,30.07,29.83,14,4,14,0.01
2013-5-13,67.4,57.5,46.1,45.6,38.9,32.6,91,53,28,30.20,30.06,12,3,13,0.00
2013-5-14,55.8,45.1,43.5,45.5,42.4,41.0,93,90,58,30.26,30.19,1,0,1,0.00
2013-5-15,44.3,44.3,44.3,42.1,42.1,42.1,92,92,92,30.26,30.26,0,0,0,0.00
2013-5-16,44.3,44.3,44.3,42.1,42.1,42.1,92,92,92,30.26,30.26,0,0,0,0.00
2013-5-17,44.3,44.3,44.3,42.1,42.1,42.1,92,92,92,30.26,30.26,0,0,0,0.00
2013-5-18,44.3,44.3,44.3,42.1,42.1,42.1,92,92,92,30.26,30.26,0,0,0,0.00
2013-5-19,44.3,44.3,44.3,42.1,42.1,42.1,92,92,92,30.26,30.26,0,0,0,0.00
2013-5-20,44.3,44.3,44.3,42.1,42.1,42.1,92,92,92,30.26,30.26,0,0,0,0.00
2013-5-21,86.1,59.0,44.3,73.3,53.5,-99.9,92,84,61,30.26,29.92,4,-2,4,0.01
2013-5-22,85.2,74.0,68.1,70.1,67.7,66.6,95,83,59,30.01,29.89,1,0,1,0.00
2013-5-23,85.2,82.2,65.2,71.6,69.0,63.1,93,65,59,29.90,29.81,5,0,10,0.00
2013-5-24,71.5,65.9,60.8,63.8,52.5,39.9,96,65,33,30.21,29.87,12,2,22,0.00
2013-5-25,78.7,63.6,49.6,52.7,46.0,41.5,85,55,32,30.32,30.15,6,0,12,0.00
2013-5-26,76.5,64.4,57.4,60.9,50.1,42.5,87,61,44,30.30,30.17,3,0,7,0.00
2013-5-27,82.7,68.0,56.0,66.5,58.9,54.6,97,75,49,30.28,30.14,1,0,5,0.00
2013-5-28,84.5,74.0,65.2,68.4,64.9,60.6,91,75,54,30.23,30.13,1,0,9,0.00
2013-5-29,85.1,74.9,65.8,69.9,65.1,61.7,89,73,51,30.23,30.14,1,0,8,0.00
2013-5-30,85.6,74.5,66.1,68.3,65.1,62.7,93,75,47,30.27,30.16,1,0,6,0.00
2013-5-31,87.2,76.7,68.2,72.0,67.7,63.7,94,75,51,30.22,30.09,2,0,8,0.00
2013-6-1,86.8,74.7,71.2,70.0,68.0,67.1,91,81,55,30.12,30.00,0,0,5,0.00
2013-6-2,82.2,74.6,69.3,72.3,69.1,66.9,97,83,71,30.03,29.89,6,0,15,0.00
2013-6-3,76.0,72.4,67.5,71.3,69.2,66.9,99,90,79,29.92,29.88,3,1,6,0.00
2013-6-4,80.3,72.9,65.8,71.6,68.1,64.9,98,86,71,30.08,29.90,5,0,12,0.00
2013-6-5,77.8,71.5,67.9,71.4,68.3,65.5,97,90,80,30.11,29.98,5,0,9,0.00
2013-6-6,77.1,71.9,68.8,73.6,70.9,68.1,99,97,88,29.99,29.80,0,0,5,0.00
2013-6-7,82.7,72.0,68.3,74.4,69.5,66.9,99,92,73,29.84,29.64,7,1,14,0.00
2013-6-8,83.9,73.2,65.7,73.0,68.5,63.3,99,86,63,30.08,29.82,8,0,13,0.00
2013-6-9,87.0,75.0,68.6,74.5,70.6,67.1,98,87,60,30.14,30.03,0,0,6,0.00
2013-6-10,81.2,74.1,70.7,73.4,71.0,68.2,98,90,75,30.08,29.88,3,0,12,0.00
2013-6-11,87.0,76.0,69.1,73.0,68.1,64.6,98,79,50,29.99,29.92,3,0,10,0.00
2013-6-12,92.4,78.9,67.4,79.5,72.5,66.5,99,82,60,30.00,29.86,2,0,9,0.00
2013-6-13,92.5,79.5,71.8,75.8,73.5,66.7,96,84,55,29.87,29.66,3,0,12,0.00
2013-6-14,81.9,74.3,65.9,67.6,60.9,57.4,86,64,46,30.03,29.75,8,2,18,0.00
2013-6-15,84.3,72.9,62.7,68.7,63.9,60.3,97,76,53,30.14,30.03,1,0,6,0.00
2013-6-16,86.5,76.7,68.2,72.3,67.6,64.1,88,74,55,30.13,30.00,3,0,13,0.00
2013-6-17,85.7,75.4,71.9,73.9,70.9,68.8,98,87,65,30.03,29.93,7,0,17,0.00
2013-6-18,77.1,72.4,70.4,75.7,71.0,69.8,99,96,84,29.96,29.80,0,0,4,0.00
2013-6-19,77.1,76.7,71.5,71.9,71.6,68.0,90,84,84,30.11,29.80,0,0,0,0.00
2013-6-20,82.2,73.6,67.1,70.2,67.7,65.5,97,83,63,30.23,30.11,5,0,7,0.00
2013-6-21,83.3,73.4,64.5,69.2,65.2,62.4,95,77,57,30.27,30.17,6,0,10,0.00
2013-6-22,84.7,73.8,64.5,71.4,67.0,62.0,93,80,59,30.23,30.11,7,1,12,0.00
2013-6-23,87.0,77.7,69.5,74.2,71.1,68.3,98,81,58,30.20,30.11,2,0,6,0.00
2013-6-24,87.8,76.6,71.0,77.2,72.6,69.3,97,88,65,30.20,30.08,2,0,7,0.00
2013-6-25,89.9,78.3,72.2,77.8,73.0,70.5,98,85,59,30.13,29.98,1,0,7,0.00
2013-6-26,90.2,76.8,71.1,76.8,71.6,66.5,97,85,59,30.04,29.89,2,0,22,0.00
2013-6-27,89.6,77.7,73.1,77.5,73.4,70.3,96,87,65,29.93,29.71,7,0,16,0.00
2013-6-28,83.9,74.9,71.6,75.9,72.1,70.4,98,92,74,29.76,29.59,1,0,2,0.00
2013-6-29,86.5,78.7,70.9,76.0,73.0,69.8,100,84,61,29.67,29.61,1,0,8,0.00
2013-6-30,84.2,74.6,68.2,75.8,71.4,66.8,97,90,71,29.84,29.66,1,0,1,0.00
2013-7-1,82.0,73.8,67.3,74.8,70.8,66.5,99,91,74,29.96,29.82,1,0,5,0.00
2013-7-2,78.4,73.5,71.7,74.4,72.1,71.1,99,96,86,30.14,29.96,1,0,7,0.01
2013-7-3,78.2,74.4,72.0,76.0,73.6,71.7,100,98,91,30.21,30.11,0,0,4,0.00
2013-7-4,86.5,75.6,70.8,77.2,73.6,70.1,100,94,70,30.25,30.14,1,0,8,0.01
2013-7-5,83.7,75.1,71.3,77.2,73.7,70.6,100,96,80,30.25,30.18,2,0,8,0.00
2013-7-6,84.7,75.7,71.9,77.5,73.6,71.6,100,94,77,30.24,30.10,1,0,5,0.01
2013-7-7,83.9,77.3,73.2,78.5,74.7,72.8,99,92,78,30.17,30.05,1,0,8,0.00
2013-7-8,86.7,78.7,72.9,77.4,74.2,72.0,98,87,64,30.19,30.09,3,0,6,0.01
2013-7-9,88.8,79.9,73.1,79.1,74.9,71.6,97,86,65,30.15,30.04,3,0,13,0.00
2013-7-10,87.0,77.0,72.0,77.7,73.6,70.8,98,90,71,30.11,29.93,0,0,12,0.00
2013-7-11,77.8,74.1,70.7,76.5,73.2,69.1,99,97,86,29.96,29.86,5,0,20,0.00
2013-7-12,81.0,74.7,70.4,73.6,71.3,68.6,99,90,75,30.01,29.87,6,0,9,0.00
2013-7-13,79.2,73.6,69.6,74.7,71.1,67.8,97,92,83,30.12,30.01,5,0,10,0.00
2013-7-14,87.0,77.6,72.9,77.0,73.9,72.3,99,89,68,30.27,30.10,2,0,9,0.00
2013-7-15,87.3,77.8,70.9,76.0,72.9,70.3,99,86,66,30.32,30.24,6,0,8,0.01
2013-7-16,91.8,79.8,71.6,79.3,73.8,70.7,98,84,53,30.30,30.20,2,0,5,0.00
2013-7-17,90.0,78.4,71.7,81.0,74.4,70.0,97,88,67,30.23,30.12,5,0,7,0.00
2013-7-18,89.9,79.9,72.1,80.0,75.3,72.0,99,87,60,30.16,30.05,6,0,0,0.00
2013-7-19,89.8,81.3,74.1,79.0,76.1,73.0,98,85,66,30.10,29.97,2,0,0,0.01
2013-7-20,86.3,78.2,73.4,78.0,75.1,73.0,98,90,75,30.02,29.91,2,0,0,0.00
2013-7-21,87.5,76.8,71.6,78.0,74.0,71.0,99,92,70,30.01,29.91,3,0,0,0.00
2013-7-22,85.5,77.8,72.0,77.0,74.0,71.0,98,88,74,29.98,29.83,1,0,0,0.00
2013-7-23,89.7,79.9,72.9,76.0,72.8,69.0,96,80,53,29.84,29.75,4,0,0,0.00
2013-7-24,88.1,79.4,72.5,80.0,73.7,69.0,97,83,63,29.86,29.73,9,0,0,0.00
2013-7-25,83.0,74.9,68.0,74.0,70.3,66.0,97,86,65,30.02,29.82,5,0,0,0.00
2013-7-26,82.5,72.9,68.9,72.0,69.7,68.0,98,90,69,30.11,30.02,0,0,0,0.00